TimeCDT,TemperatureF,Dew PointF,Humidity,Sea Level PressureIn,VisibilityMPH,Wind Direction,Wind SpeedMPH,Gust SpeedMPH,PrecipitationIn,Events,Conditions,WindDirDegrees,DateUTC
12:56 AM,47.8,46.9,97,30.09,10.0,Calm,Calm,-,N/A,,Clear,0,2013-09-14 05:56:00
1:09 AM,48.2,48.2,100,30.08,1.8,Calm,Calm,-,N/A,,Clear,0,2013-09-14 06:09:00
1:15 AM,48.2,48.2,100,30.08,3.0,Calm,Calm,-,N/A,,Clear,0,2013-09-14 06:15:00
1:56 AM,47.8,46.9,97,30.08,10.0,Calm,Calm,-,N/A,,Clear,0,2013-09-14 06:56:00
2:56 AM,45.9,45.9,100,30.08,10.0,Calm,Calm,-,N/A,,Clear,0,2013-09-14 07:56:00
3:56 AM,47.8,46.9,97,30.08,10.0,Calm,Calm,-,N/A,,Clear,0,2013-09-14 08:56:00
4:56 AM,45.0,45.0,100,30.09,10.0,Calm,Calm,-,N/A,,Clear,0,2013-09-14 09:56:00
5:56 AM,46.9,46.9,100,30.11,10.0,Calm,Calm,-,N/A,,Clear,0,2013-09-14 10:56:00
6:56 AM,48.9,47.8,96,30.13,10.0,Calm,Calm,-,N/A,,Clear,0,2013-09-14 11:56:00
7:56 AM,54.0,50.9,89,30.15,10.0,NE,8.1,-,N/A,,Clear,40,2013-09-14 12:56:00
8:56 AM,57.9,52.0,81,30.16,10.0,ENE,11.5,-,N/A,,Clear,70,2013-09-14 13:56:00
9:56 AM,61.9,52.0,70,30.16,10.0,NE,9.2,16.1,N/A,,Clear,40,2013-09-14 14:56:00
10:56 AM,63.9,50.0,61,30.16,10.0,East,12.7,-,N/A,,Clear,80,2013-09-14 15:56:00
11:56 AM,66.9,48.9,52,30.16,10.0,NNE,12.7,-,N/A,,Clear,30,2013-09-14 16:56:00
12:56 PM,68.9,48.9,49,30.15,10.0,NNE,8.1,-,N/A,,Clear,20,2013-09-14 17:56:00
1:56 PM,70.0,48.9,47,30.13,10.0,Variable,5.8,-,N/A,,Clear,0,2013-09-14 18:56:00
2:56 PM,70.0,48.9,47,30.12,10.0,Variable,5.8,-,N/A,,Clear,0,2013-09-14 19:56:00
3:56 PM,70.9,48.9,46,30.11,10.0,NE,5.8,-,N/A,,Clear,50,2013-09-14 20:56:00
4:56 PM,70.9,50.0,48,30.12,10.0,ENE,8.1,-,N/A,,Clear,70,2013-09-14 21:56:00
5:56 PM,68.9,50.0,51,30.12,10.0,East,5.8,-,N/A,,Clear,90,2013-09-14 22:56:00
6:56 PM,59.0,54.0,83,30.13,10.0,Calm,Calm,-,N/A,,Clear,0,2013-09-14 23:56:00
7:56 PM,54.9,52.9,93,30.14,10.0,Calm,Calm,-,N/A,,Clear,0,2013-09-15 00:56:00
8:56 PM,52.0,50.9,96,30.15,10.0,Calm,Calm,-,N/A,,Clear,0,2013-09-15 01:56:00
9:56 PM,50.9,50.9,100,30.15,10.0,Calm,Calm,-,N/A,,Clear,0,2013-09-15 02:56:00
10:56 PM,50.0,50.0,100,30.15,5.0,Calm,Calm,-,N/A,,Clear,0,2013-09-15 03:56:00
11:56 PM,48.9,48.9,100,30.15,7.0,Calm,Calm,-,N/A,,Clear,0,2013-09-15 04:56:00